Regional Weather Roundup
Issued by NWS

Home | Current Version | Previous Version | Graphics & Text | Print | Product List | Glossary On
Versions: 1 2 3 4 5 6 7 8 9 10 11 12 13 14 15 16 17 18 19 20 21 22 23 24 25 26 27
000
ASUS45 KSLC 281910
RWRUT

UTAH REGIONAL WEATHER ROUNDUP
NATIONAL WEATHER SERVICE SALT LAKE CITY UT
100 PM MDT WED JUN 28 2017

UTZ001>011-023>025-282000-

NORTHERN UTAH

CITY           SKY/WX    TMP DP  RH WIND       PRES   REMARKS
BRIGHAM CITY   SUNNY     81  38  21 S12       29.88F
DUGWAY         MOSUNNY   87  25  10 NW7       29.87F
HILL AFB       MOSUNNY   81  41  23 SW9       29.91S
LOGAN          SUNNY     81  43  26 VRB5      29.87F
OGDEN          SUNNY     83  38  20 VRB7      29.88S
SALT LAKE CITY MOSUNNY   88  31  13 NW5G16    29.85F
TOOELE VALLEY  SUNNY     84  52  32 N10       29.87F
WENDOVER       SUNNY     85  37  18 SE10      29.87F
HEBER CITY     SUNNY     86  27  11 SW13G18   29.93F
WEST JORDAN    SUNNY     84  50  30 N5        29.90S

$$

UTZ011>015-024>027-282000-

CENTRAL/NORTHEAST UTAH

CITY           SKY/WX    TMP DP  RH WIND       PRES   REMARKS
PROVO AIRPORT  SUNNY     82  46  28 VRB5      29.89F
MOAB/CANYONLAN SUNNY     95  12   5 W15G21    29.83F
DELTA          SUNNY     86  25  10 SE3       29.90F
PRICE          SUNNY     86  22   9 VRB5      29.94F
ROOSEVELT      SUNNY     86  28  12 E6        29.90F
VERNAL         SUNNY     85  29  13 VRB6      29.90F

$$

UTZ013>016-019>022-027-282000-

SOUTHERN UTAH

CITY           SKY/WX    TMP DP  RH WIND       PRES   REMARKS
BRYCE CANYON   SUNNY     80  12   7 SW14G29   30.14S
CEDAR CITY     SUNNY     89  16   7 SW14G25   29.98S
MILFORD        SUNNY     93  15   6 SW18G33   29.89F
ST GEORGE      CLEAR     95  21   7 VRB3      29.82S
HANKSVILLE     SUNNY     95  23   7 CALM      29.84F
BLANDING       SUNNY     88  21   8 SW17G23   30.07F

$$

REGIONAL REPORTS     COLORADO/ARIZONA

CITY           SKY/WX    TMP DP  RH WIND       PRES   REMARKS
CRAIG, CO      SUNNY     83  23  11 VRB5      29.97F
GRAND JUNCTION SUNNY     92  28  10 W9        29.87F
RIFLE, CO      SUNNY     89  24   9 W21       29.90F
MONTROSE, CO   SUNNY     88  21   8 SW17G31   29.96F
CORTEZ, CO     SUNNY     88  12   6 W10G23    30.03F
COLORADO CITY    N/A     93  18   6 W10G23    29.99S
PAGE, AZ       NOT AVBL
GRAND CANYON   SUNNY     85  11   6 SW18G32   30.13S
KINGMAN, AZ    SUNNY     97  21   6 S23G30    29.91S HX  90
FLAGSTAFF, AZ  SUNNY     77  24  14 SW23G29   30.20S

$$

REGIONAL REPORTS    NEVADA/IDAHO/WYOMING

CITY           SKY/WX    TMP DP  RH WIND       PRES   REMARKS
LAS VEGAS, NV  SUNNY     98  17   5 SE8       29.77F HX  91
ELY, NY        SUNNY     83  25  12 SW12G25   30.02S
ELKO, NV       SUNNY     80  28  15 VRB5G28   29.98S
POCATELLO, ID  MOSUNNY   74  49  41 E9        29.92F
BURLEY, ID     SUNNY     74  48  39 W8        29.89F
FORT BRIDGER,  CLEAR     77  25  14 W13G32    30.05F
EVANSTON, WY   SUNNY     74  28  18 W23G29    30.05S
ROCK SPRINGS,  SUNNY     78  22  12 W20G33    29.99F
KEMMERER, WY     N/A     72  25  17 W21G33    30.03F

$$




USA.gov is the U.S. government's official web portal to all federal, state and local government web resources and services.